Location: Gombori
(14.9797°N, 2.9419°W)
Time: 12:09:33
(UTC+00:00)

METEOR 2-17 DEB - Pass Details

Date: 29 May 2022
Orbit: 896 x 935 km, 82.5° (Epoch: 24 June)

Event Time Altitude Azimuth Distance (km) Brightness Sun altitude
Rises 21:42:47 0° 358° (N) 3,507 ? -38.7°
Reaches altitude 10° 21:45:14 10° 359° (N) 2,564 ? -39.1°
Enters shadow 21:46:57 20° 1° (N) 1,927 ? -39.4°
